Location: Newark
(7.0858°N, 171.3717°E)
Time: 04:19:13
(UTC+00:00)

Vanguard 2 - Pass Details

Date: 04 December 2020
Orbit: 553 x 2937 km, 32.9° (Epoch: 26 January)

Event Time Altitude Azimuth Distance (km) Brightness Sun altitude
Rises 19:28:49 0° 261° (W) 6,158 11.6 11.8°
Reaches altitude 10° 19:34:09 10° 271° (W) 4,769 11.1 13.0°
Maximum altitude 19:44:24 29° 325° (NW) 2,637 9.9 15.3°
Drops below altitude 10° 19:51:17 10° 24° (NNE) 3,125 10.7 16.9°
Sets 19:54:00 0° 36° (NE) 3,794 11.2 17.5°
